Regional Weather Roundup
Issued by NWS Sioux Falls, SD

Home | Current Version | Previous Version | Text Only | Print | Product List | Glossary On
Versions: 1 2 3 4 5 6 7 8 9 10 11 12 13 14 15 16 17 18 19 20 21 22 23 24 25 26 27 28 29 30 31 32 33 34 35 36 37 38 39 40 41 42 43 44 45 46 47 48 49 50
000
ASUS43 KFSD 191602
RWRFSD

WEATHER ROUNDUP FOR SE SOUTH DAKOTA/SW MINNESOTA/NW IOWA
NATIONAL WEATHER SERVICE SIOUX FALLS SD
1000 AM CST SUN FEB 19 2017

NOTE: "FAIR" INDICATES FEW OR NO CLOUDS BELOW 12,000 FEET WITH NO
SIGNIFICANT WEATHER AND OR OBSTRUCTIONS TO VISIBILITY.


SDZ038>040-050-052>070-191700-
SOUTHEAST SOUTH DAKOTA

CITY           SKY/WX    TMP DP  RH WIND       PRES   REMARKS
BROOKINGS      CLOUDY    46  38  73 SE14      29.75F
CHAMBERLAIN    CLOUDY    49  41  72 SE14      29.63F
HURON          CLOUDY    46  38  73 SE16      29.69F
MADISON        FAIR      43  43 100 S14       29.76S
MITCHELL       CLOUDY    46  39  76 SE13      29.72S
SIOUX FALLS    CLOUDY    49  40  71 S13G18    29.79S
WINNER         FAIR      58  39  49 S15G24    29.61F
YANKTON        CLOUDY    46  39  76 E7        29.76F
$$

MNZ071-072-080-081-089-090-097-098-191700-
SOUTHWEST MINNESOTA

CITY           SKY/WX    TMP DP  RH WIND       PRES   REMARKS
FAIRMONT       SUNNY     44  39  82 S14       29.89F
JACKSON        CLOUDY    43  36  75 S14       29.86F
LUVERNE        SUNNY     45  36  70 S14       29.82S
MARSHALL       CLOUDY    49  40  71 S16       29.80F
MONTEVIDEO     MOSUNNY   45  41  87 S12       29.82S
PIPESTONE      CLOUDY    46  36  66 S10G16    29.78F
REDWOOD FALLS  CLOUDY    44  38  79 SE16      29.83F
TRACY          CLOUDY    49  41  72 S14G22    29.81F
WINDOM         CLOUDY    48  39  71 SE13G18   29.84F
WORTHINGTON    CLOUDY    46  39  76 S15       29.84F
$$

IAZ001>003-012>014-020>022-031-032-NEZ013-014-SDZ071-191700-
NORTHWEST IOWA

CITY           SKY/WX    TMP DP  RH WIND       PRES   REMARKS
CHEROKEE       MOSUNNY   50  44  79 S9        29.87F
DENISON        SUNNY     54  45  71 S12       29.88S
ESTHERVILLE    CLOUDY    43  40  89 S15       29.88F
LE MARS        SUNNY     52  43  71 S14       29.84S
SHELDON        SUNNY     48  46  93 SE18      29.83S
SIOUX CITY     CLOUDY    49  41  74 SE15      29.84F
SPENCER        CLOUDY    46  39  76 SE13      29.87F
STORM LAKE     SUNNY     48  41  76 SE14      29.89S
$$

ABBREVIATIONS USED IN REMARKS
   TC - TEMPERATURE IN CELSIUS
  WCI - WIND CHILL INDEX
   HX - HEAT INDEX
  VSB - VISIBILITY




USA.gov is the U.S. government's official web portal to all federal, state and local government web resources and services.